Change the Weather History Date:

Friday, November 8, 2013

  Actual Average Record
Temperature  
Mean Temperature 40 °F 43 °F  
Max Temperature 54 °F 53 °F 79 °F (1999)
Min Temperature 25 °F 33 °F -3 °F (1991)
Degree Days  
Heating Degree Days 25 22  
Month to date heating degree days 161 161  
Since 1 July heating degree days 649 685  
Cooling Degree Days 0 0  
Month to date cooling degree days 0 0  
Year to date cooling degree days 1014 938  
Moisture  
Dew Point 29 °F    
Average Humidity 62    
Maximum Humidity 81    
Minimum Humidity 42    
Precipitation  
Precipitation 0.00 in 0.08 in 1.30 in (1932)
Month to date precipitation 0.77 0.71  
Year to date precipitation 34.87 34.03  
Sea Level Pressure  
Sea Level Pressure 30.09 in    
Wind  
Wind Speed 13 mph (South)    
Max Wind Speed 29 mph    
Max Gust Speed 37 mph    
Visibility 10 miles    
Events      
T = Trace of Precipitation, MM = Missing Value Source: NWS Daily Summary

Daily Weather History Graph

Daily Weather History Graph

Search for Another Location

Airport or City:

Trip Planner

Search our weather history database for the weather conditions in past years. The results will help you decide how hot, cold, wet, or windy it might be!

Date:

Astronomy

Nov. 08, 2013 Rise Set
Actual Time 6:49 AM CST 4:57 PM CST
Civil Twilight 6:20 AM CST 5:26 PM CST
Nautical Twilight 5:47 AM CST 5:59 PM CST
Astronomical Twilight 5:15 AM CST 6:31 PM CST
Moon 11:45 AM CST (11/8) 10:18 PM CST (11/8)
Length of Visible Light 11h 05m
Length of Day
10h 07m
Waxing Crescent, 33% of the Moon is Illuminated
Nov 8
Waxing Crescent
Nov 9
First Quarter
Nov 17
Full
Nov 25
Last Quarter
Dec 2
New

Hourly Weather History & Observations

Time (CST) Temp. Windchill Dew Point Humidity Pressure Visibility Wind Dir Wind Speed Gust Speed Precip Events Conditions
12:53 AM 28.9 °F 22.8 °F 21.9 °F 75% 30.32 in 10.0 mi West 5.8 mph - N/A   Clear
1:53 AM 28.0 °F 24.2 °F 21.9 °F 78% 30.31 in 10.0 mi SW 3.5 mph - N/A   Clear
2:53 AM 28.0 °F - 21.9 °F 78% 30.31 in 10.0 mi Calm Calm - N/A   Clear
3:53 AM 27.0 °F 21.6 °F 21.0 °F 78% 30.30 in 10.0 mi SSW 4.6 mph - N/A   Clear
4:53 AM 28.0 °F 22.8 °F 21.9 °F 78% 30.30 in 10.0 mi South 4.6 mph - N/A   Clear
5:53 AM 28.9 °F 22.8 °F 21.9 °F 75% 30.28 in 10.0 mi SSE 5.8 mph - N/A   Clear
6:53 AM 27.0 °F 20.5 °F 21.9 °F 81% 30.27 in 10.0 mi South 5.8 mph - N/A   Clear
7:53 AM 33.1 °F 26.1 °F 26.1 °F 75% 30.27 in 10.0 mi South 8.1 mph - N/A   Clear
8:53 AM 37.0 °F 29.3 °F 26.1 °F 65% 30.24 in 10.0 mi SSE 11.5 mph - N/A   Clear
9:53 AM 37.9 °F 29.2 °F 28.0 °F 68% 30.23 in 10.0 mi South 15.0 mph - N/A   Clear
10:53 AM 44.1 °F 36.2 °F 27.0 °F 51% 30.18 in 10.0 mi South 18.4 mph 25.3 mph N/A   Clear
11:53 AM 48.0 °F - 26.1 °F 42% 30.12 in 10.0 mi South 19.6 mph 29.9 mph N/A   Clear
12:53 PM 48.9 °F - 28.0 °F 44% 30.05 in 10.0 mi SSE 19.6 mph 28.8 mph N/A   Clear
1:53 PM 51.1 °F - 30.0 °F 44% 30.01 in 10.0 mi SSE 19.6 mph - N/A   Clear
2:53 PM 52.0 °F - 30.9 °F 45% 29.93 in 10.0 mi SSE 24.2 mph 34.5 mph N/A   Clear
3:53 PM 54.0 °F - 34.0 °F 47% 29.90 in 10.0 mi SSE 23.0 mph 28.8 mph N/A   Clear
4:53 PM 52.0 °F - 34.0 °F 50% 29.90 in 10.0 mi South 17.3 mph - N/A   Clear
5:53 PM 51.1 °F - 34.0 °F 52% 29.92 in 10.0 mi South 10.4 mph - N/A   Clear
6:53 PM 50.0 °F - 35.1 °F 57% 29.89 in 10.0 mi SSE 17.3 mph - N/A   Clear
7:53 PM 50.0 °F - 35.1 °F 57% 29.88 in 10.0 mi South 17.3 mph - N/A   Clear
8:53 PM 50.0 °F - 36.0 °F 59% 29.86 in 10.0 mi South 15.0 mph - N/A   Clear
9:53 PM 50.0 °F - 37.0 °F 61% 29.86 in 10.0 mi South 12.7 mph - N/A   Clear
10:53 PM 53.1 °F - 35.1 °F 50% 29.86 in 10.0 mi SW 16.1 mph 24.2 mph N/A   Clear
11:53 PM 53.1 °F - 35.1 °F 50% 29.86 in 10.0 mi SW 19.6 mph 27.6 mph N/A   Clear